TIME,DELAY(SENSOR),PRES,OXYGEN,RAWTEMP,T(OPTODE),TCPHASE,FLUOR,BETA(BETA700),BETA(BETA412),BETA(BETA440),CDOM,C(CSC),ED(ED412.40),ED(ED444.00),ED(ED489.70),ED(ED554.30),LU(LU411.80),LU(LU443.40),LU(LU489.60),LU(LU554.10),COMP,TILTX,TILTY,CHECK
1382846178,5809,823.2199707031250000,50.1515998840332000,655.9285888671875000,4.7619171142578125,53.4707107543945300,52,99,86,78,78,15253,2147754852,2147421467,2148014491,2147876251,2147637942,2147056941,2148259026,2147194441,2174,4,13,7696
1382849774,5808,880.9899902343750000,54.6398010253906250,660.9260253906250000,4.5974831581115720,52.9228096008300800,52,97,82,79,78,15253,2147753225,2147424073,2148013339,2147871643,2147637705,2147051840,2148262875,2147196214,49,4,13,61471
1382853374,5808,892.9400024414062000,54.2738609313964840,661.3449707031250000,4.5836830139160160,52.9762382507324200,52,96,86,78,77,15253,2147755556,2147423844,2148013339,2147874788,2147642724,2147059410,2148261165,2147192429,2987,4,13,61390
1382856974,5808,910.0999755859375000,54.9631614685058600,664.3009033203125000,4.4862771034240720,52.9255790710449200,52,98,87,78,78,15251,2147752274,2147425874,2148011968,2147870363,2147641636,2147057728,2148262811,2147197412,3351,4,13,53906
1382860574,5809,917.6900024414062000,55.0326385498046900,664.7022705078125000,4.4730420112609860,52.9208412170410160,52,99,84,77,78,15249,2147753572,2147421522,2148014244,2147874843,2147636790,2147060059,2148263670,2147197577,3451,3,13,3712
1382864174,5809,914.7100219726562000,55.4034690856933600,665.9616699218750000,4.4315071105957030,52.8845405578613300,51,96,86,79,77,15252,2147755931,2147422857,2148012461,2147874267,2147638930,2147051392,2148263186,2147198976,4,4,13,41062
1382867774,5810,943.7600097656250000,56.7582397460937500,668.6701049804688000,4.3421192169189450,52.7464790344238300,53,97,87,78,79,15252,2147752301,2147421202,2148013147,2147874176,2147641673,2147050020,2148268269,2147196580,3441,4,13,50133
1382871374,5806,941.6900024414062000,56.5670204162597660,668.6356201171875000,4.3432598114013670,52.7671089172363300,53,96,86,78,78,15253,2147754944,2147420854,2148013248,2147878802,2147641938,2147056978,2148263606,2147200064,3388,4,13,5066
1382874974,5810,942.6300048828125000,56.8845100402832000,669.5303955078125000,4.3137087821960450,52.7416801452636700,53,97,84,78,78,15251,2147752585,2147423122,2148013750,2147877778,2147641033,2147054610,2148264658,2147194057,30,4,13,42903
1382878574,5809,967.9400024414062000,57.5527000427246100,672.3046264648438000,4.2220358848571780,52.6894493103027340,52,97,83,79,79,15254,2147759899,2147422299,2148014272,2147875602,2147642075,2147056886,2148264530,2147198793,3422,4,13,11395
1382882174,5809,972.2399902343750000,57.7455787658691400,672.5615844726562000,4.2135429382324220,52.6700401306152340,52,98,80,77,78,15252,2147755337,2147422957,2148013686,2147875456,2147641225,2147054509,2148267538,2147196224,601,4,13,15761
1382885774,5807,980.5499877929688000,57.9152412414550800,672.7733154296875000,4.2065410614013670,52.6467208862304700,52,97,86,79,78,15249,2147757860,2147425856,2148014354,2147874486,2147641398,2147051648,2148263241,2147199222,3175,4,13,23413
1382889374,5811,975.1599731445312000,57.5032005310058600,672.8049926757812000,4.2054939270019530,52.7019081115722660,52,98,85,78,78,15221,2147756653,2147423890,2148011200,2147874596,2147637878,2147050742,2148264411,2147196745,3320,4,13,4103
1382892974,5810,976.7800292968750000,57.4868507385253900,672.0693969726562000,4.2298130989074710,52.6923599243164060,52,98,87,78,79,15252,2147757988,2147423387,2148013842,2147874788,2147641316,2147056841,2148262720,2147197924,124,4,13,6855
1382896574,5809,975.8300170898438000,57.4253883361816400,671.6917724609375000,4.2422919273376465,52.6953506469726560,53,98,84,78,78,15253,2147755611,2147420608,2148013769,2147872758,2147642432,2147055433,2148267986,2147196909,88,4,13,60902
1382900174,5811,978.9500122070312000,57.1854782104492200,671.9494018554688000,4.2337799072265625,52.7294006347656250,52,97,85,79,77,15249,2147753088,2147423689,2148012489,2147875648,2147642212,2147052562,2148257865,2147194422,85,4,13,29613
1382903774,5808,975.6599731445312000,57.4025382995605500,672.4735717773438000,4.2164521217346190,52.7142486572265600,52,97,87,78,78,15251,2147756278,2147422080,2148017398,2147876800,2147639314,2147057124,2148265115,2147200905,3393,4,13,63979
1382907374,5810,984.5000000000000000,57.8400611877441400,672.7009277343750000,4.2089347839355470,52.6564788818359400,52,96,82,78,78,15251,2147758052,2147421668,2148014116,2147873874,2147639670,2147047323,2148266560,2147194953,3529,4,13,11256
1382910974,5808,987.2000122070312000,57.6601295471191400,671.6533203125000000,4.2435679435729980,52.6691093444824200,52,97,83,78,79,15248,2147759771,2147422025,2148013778,2147877394,2147642852,2147052790,2148263945,2147198125,3589,4,13,34310
1382914574,5812,982.8699951171875000,57.4728317260742200,671.4890747070312000,4.2489929199218750,52.6921195983886700,51,98,84,77,78,15247,2147754724,2147425133,2148012233,2147874660,2147642066,2147049152,2148261988,2147198070,6,4,13,41122
1382918174,5808,986.1500244140625000,57.1211891174316400,671.5791015625000000,4.2460188865661620,52.7358207702636700,52,96,84,77,76,15248,2147757659,2147420946,2148012315,2147873033,2147640822,2147049691,2148265910,2147195282,3535,4,13,27202
1382921774,5807,985.4500122070312000,56.8316116333007800,672.1738281250000000,4.2263598442077640,52.7826614379882800,52,95,84,80,79,15247,2147755044,2147426157,2148012288,2147874578,2147640338,2147051483,2148264246,2147199131,177,4,13,11306
1382925374,5811,977.3200073242188000,57.2631187438964840,673.4998168945312000,4.1825160980224610,52.7426986694335940,52,96,86,79,80,15247,2147756763,2147422491,2148012754,2147873252,2147642112,2147050322,2148267556,2147199762,317,4,13,32587
1382928974,5809,977.0499877929688000,57.0694007873535160,674.1520996093750000,4.1609401702880860,52.7773208618164060,52,99,86,78,78,15249,2147756882,2147418944,2148014134,2147876178,2147644041,2147056850,2148266404,2147198564,154,4,13,695
1382932574,5808,982.8200073242188000,57.2789192199707000,674.0930786132812000,4.1628909111022950,52.7500190734863300,53,95,82,78,78,15250,2147756150,2147419712,2148014162,2147877010,2147642084,2147051465,2148269558,2147196205,209,4,13,50150
1382936174,5811,989.8099975585938000,57.2647781372070300,672.3734741210938000,4.2197608947753910,52.7264518737793000,52,96,82,79,79,15250,2147756260,2147423798,2148010230,2147876425,2147638326,2147058139,2148263661,2147196507,291,4,13,51056
1382939774,5811,989.5999755859375000,56.7411994934082000,671.8457031250000000,4.2372069358825680,52.7900505065918000,52,99,84,79,78,15249,2147753060,2147424347,2148012013,2147875273,2147639286,2147055844,2148262189,2147197266,3129,3,13,65278
1382943374,5810,998.3699951171875000,57.2262001037597660,670.6577148437500000,4.2764678001403810,52.7071495056152340,52,96,84,78,79,15245,2147753974,2147423689,2148011949,2147874541,2147641142,2147054427,2148264557,2147197540,135,4,13,5857
1382946974,5807,1001.7999877929688000,56.9076881408691400,669.5435180664062000,4.3132739067077640,52.7392807006835940,51,97,84,78,79,15244,2147751003,2147425819,2148011547,2147871460,2147639936,2147049490,2148265654,2147198180,230,4,13,9467
1382950574,5809,984.1699829101562000,56.7396507263183600,670.9940795898438000,4.2653517723083500,52.7771186828613300,51,97,82,79,77,15245,2147754212,2147424640,2148013997,2147872896,2147638628,2147055305,2148262628,2147198573,222,3,13,33579
1382954174,5812,996.5599975585938000,57.6293296813964840,672.3104858398438000,4.2218441963195800,52.6819496154785160,52,97,86,78,78,15226,2147756141,2147423049,2148013376,2147873581,2147639945,2147051346,2148259931,2147196022,393,4,13,27497
1382957774,5810,991.6199951171875000,57.0208206176757800,671.2651977539062000,4.2563929557800290,52.7456398010253900,51,96,85,77,77,15244,2147753124,2147422930,2148014409,2147873810,2147640530,2147053165,2148263104,2147196772,174,4,13,54136
1382961374,5808,988.4500122070312000,56.7895393371582000,672.3474121093750000,4.2206230163574220,52.7886009216308600,52,106,83,79,78,15244,2147754102,2147422848,2148014070,2147873206,2147642267,2147051072,2148262262,2147192109,105,4,13,51258
1382964974,5809,983.4500122070312000,57.5774002075195300,672.7872924804688000,4.2060780525207520,52.6942710876464840,52,96,81,79,79,15243,2147755821,2147422646,2148010934,2147876297,2147641572,2147049161,2148265124,2147197083,180,4,13,51660
1382968574,5808,982.0700073242188000,57.1678390502929700,673.1315917968750000,4.1946930885314940,52.7499885559082000,52,97,85,77,78,15242,2147754971,2147425170,2148012992,2147872548,2147642322,2147050998,2148264164,2147196022,131,4,13,54441
1382972174,5807,980.0999755859375000,57.7551498413085940,674.5861816406250000,4.1465802192687990,52.6959495544433600,52,95,85,77,79,15245,2147755419,2147423652,2148013394,2147877796,2147641755,2147055058,2148266240,2147194870,3151,4,13,63072
1382975774,5805,990.4600219726562000,58.4128990173339840,674.7487792968750000,4.1411972045898440,52.6128807067871100,51,96,87,79,78,15244,2147753938,2147425956,2148015451,2147876022,2147639451,2147057828,2148260470,2147197302,215,4,13,43052
1382979374,5805,995.7700195312500000,58.0831108093261700,673.2653198242188000,4.1902728080749510,52.6334609985351560,52,97,88,78,78,15244,2147753033,2147421595,2148014646,2147876050,2147639963,2147053714,2148262966,2147197979,3473,4,13,24939
1382982974,5812,995.9099731445312000,57.4560012817382800,671.3455200195312000,4.2537398338317870,52.6911697387695300,52,97,86,76,78,15244,2147752886,2147423323,2148014720,2147873216,2147638893,2147054720,2148263926,2147195721,85,4,13,40092
1382986574,5811,990.8099975585938000,56.6970100402832000,672.1243286132812000,4.2279968261718750,52.7949218750000000,51,98,83,78,77,15240,2147754322,2147425243,2148014902,2147878829,2147641764,2147055570,2148266166,2147198427,3592,4,13,41647
1382990156,5807,989.1900024414062000,57.4572105407714840,672.2811279296875000,4.2228131294250490,52.7041816711425800,52,95,87,77,78,15243,2147753563,2147424164,2148012708,2147878912,2147640512,2147053549,2148264777,2147201892,3402,3,13,62812
